Tracking 28794 objects as of 22-Apr-2024
HD Live streaming from Space Station
objects crossing your sky now

SL-8 R/B

Track SL-8 R/B now!
10-day predictions


NORAD ID: 14547
Int'l Code: 1983-120B
Perigee: 945.4 km
Apogee: 1,016.0 km
Inclination: 82.9 °
Period: 104.6 minutes
Semi major axis: 7351 km
RCS: 4.4678 m2 (large)
Launch date: December 8, 1983
Source: Commonwealth of Independent States (former USSR) (CIS)
Launch site: PLESETSK MISSILE AND SPACE COMPLEX (PKMTR)

Note: This is a ROCKET BODY
Your satellite tracking list
Your tracking list is empty




NASA's NSSDC Master Catalog

Two Line Element Set (TLE):
1 14547U 83120B   24113.20118706  .00000211  00000-0  19559-3 0  9997
2 14547  82.9354  29.6010 0048030  67.0628 293.5587 13.77274600784696
Source of the keplerian elements: AFSPC